Location: Maignaut
(43.8886°N, 0.4051°E)
Time: 02:33:43
(UTC+00:00)

CSL-04 Debris - Pass Details

Date: 17 January 2021
Orbit: 827 x 847 km, 98.9° (Epoch: 04 March)

Event Time Altitude Azimuth Distance (km) Brightness Sun altitude
Rises 18:26:37 0° 148° (SSE) 3,364 7.1 -17.3°
Reaches altitude 10° 18:29:02 10° 143° (SE) 2,432 6.3 -17.7°
Maximum altitude 18:34:12 49° 69° (ENE) 1,060 4.3 -18.6°
Drops below altitude 10° 18:39:22 10° 356° (N) 2,441 6.5 -19.5°
Sets 18:41:47 0° 351° (N) 3,379 7.3 -19.9°
